User: anonymous   Login
Location: Unspecified
(0.0000°N, 0.0000°E)
Time: 21:55:31
(UTC+00:00)
Language:

STARLINK-3244 - Orbit

View from above orbital plane
View from above orbital plane
View from above satellite
View from above satellite

Ground track
Ground track

The orbit is defined by the following mean orbital elements,

1 49741U          26145.32320062 +.00000000 +00000-0 +92588-4 0 00000
2 49741  53.2134 165.1072 0001097  73.0282 287.0830 15.08843132    09
Epoch (UTC): 25 May 2026 07:45:24
Eccentricity: 0.0001097
inclination: 53.2134°
perigee height: 539 km
apogee height: 540 km
right ascension of ascending node: 165.1072°
argument of perigee: 73.0282°
revolutions per day: 15.08843132
mean anomaly at epoch: 287.0830°

The dashed part of the orbit path shows where the satellite is in the earth's shadow,  

DLR